Wind_Speed
19 20 21 21 21 21 21 20 20 19 19 19 20 21 23 24 25 24 22 22 22 21 20 20 20 21 20 18 16 17 17 16 17 16 14 13 13 14 14 14 13 13 14 14 14 14 14 13 13 13 12 12 11 11 11 11 11 11 11 10 10 10 10 9 8 8 8 8 8 8 7 6 6 5 5 5 5 5 5 5 6 6 6 6 6
19 20 21 21 21 21 21 21 20 20 20 20 21 22 24 25 26 26 24 23 22 21 20 20 20 22 21 18 18 19 18 17 18 18 16 14 13 13 13 14 13 14 15 16 15 14 14 14 13 13 12 12 11 11 11 11 11 11 11 11 10 10 9 8 8 8 7 8 8 7 6 5 6 6 6 5 5 5 5 5 5 6 6 6 6
19 20 21 21 21 21 21 21 21 21 21 21 22 23 24 26 27 27 25 23 22 21 20 20 22 23 22 19 19 19 18 17 19 19 17 15 13 13 13 13 14 15 15 15 15 14 14 14 14 13 13 12 11 11 11 11 10 11 11 10 10 9 8 8 8 8 8 8 7 6 5 6 6 6 5 5 5 5 5 5 6 5 5 6 6
20 20 21 21 21 21 21 21 20 21 21 21 22 23 24 25 26 27 26 23 22 22 20 21 23 23 21 19 19 19 19 19 20 20 18 16 15 14 14 14 14 15 15 14 14 14 13 14 14 14 13 12 11 11 11 11 11 10 10 10 9 8 8 7 7 7 8 7 6 5 6 6 6 5 5 5 5 5 5 5 5 5 5 5 5
20 20 20 20 21 20 20 20 21 21 21 21 21 22 23 24 26 27 26 24 23 23 21 22 23 22 20 19 19 20 19 20 20 20 19 17 16 15 15 16 15 14 14 14 14 14 14 14 14 14 13 12 11 11 11 10 10 10 10 9 8 7 7 7 7 7 7 5 5 5 6 5 5 5 4 4 5 5 5 4 4 5 5 5 5
19 19 19 20 20 20 20 20 21 22 21 20 21 22 23 24 25 27 26 24 24 24 23 23 23 21 20 19 19 19 19 19 20 19 18 17 16 16 16 17 16 15 14 14 13 14 14 14 14 14 13 12 11 11 10 10 10 9 9 9 8 7 6 6 6 6 5 4 5 5 5 5 4 4 4 4 4 4 4 4 4 4 5 5 6
18 18 18 19 19 19 20 20 21 22 22 21 22 22 23 24 25 25 25 24 24 25 24 24 23 22 20 19 19 18 19 19 19 19 19 18 17 17 18 18 16 14 14 14 13 14 14 14 14 13 12 12 12 11 10 10 10 9 9 8 7 6 6 6 5 4 4 4 5 5 5 4 3 3 3 3 4 3 3 3 4 4 5 5 6
17 18 18 18 18 18 20 21 21 22 22 22 22 23 24 24 24 25 24 24 24 24 23 23 23 22 20 20 18 18 18 19 19 19 19 18 18 18 18 17 16 15 14 13 13 14 15 14 13 12 12 12 12 11 11 11 11 9 9 8 7 6 6 5 4 3 4 4 5 5 5 4 3 3 3 3 3 3 3 3 3 4 4 6 7
18 18 17 17 19 19 21 22 21 22 22 22 22 23 24 24 24 25 24 23 23 22 22 23 22 21 20 20 19 18 19 19 19 19 18 18 19 19 17 16 16 16 15 14 14 15 15 14 12 11 12 12 12 11 11 11 10 9 9 8 7 6 5 4 3 3 4 4 5 5 4 3 2 2 2 2 2 2 2 3 3 4 5 7 9
18 17 17 17 19 20 21 22 22 22 22 22 22 22 24 24 25 25 24 23 22 22 23 23 21 20 21 21 21 19 20 19 18 18 18 19 19 18 17 16 17 17 16 16 15 15 15 14 12 11 12 12 11 11 11 10 9 9 9 8 6 6 4 3 3 4 3 4 5 4 3 2 1 1 1 1 2 1 2 2 3 4 6 8 10
19 18 18 18 19 19 20 21 22 23 23 23 23 23 24 25 25 25 24 23 23 23 24 22 20 19 21 22 21 21 21 19 18 18 18 19 18 17 17 17 17 17 17 16 15 14 14 13 12 11 11 11 11 11 10 10 10 9 8 7 6 4 4 3 4 4 3 4 4 4 3 1 0 0 1 1 1 0 1 2 4 6 7 9 10
18 18 19 20 19 19 20 21 21 22 23 23 23 23 23 24 26 26 25 24 23 24 25 24 22 21 22 23 22 22 21 19 19 19 19 18 18 18 18 18 18 17 17 16 15 14 14 13 12 11 10 10 10 10 10 10 10 9 8 7 5 4 4 4 4 3 3 4 4 4 2 2 1 1 1 1 1 1 2 3 5 7 8 9 10
20 20 21 20 20 20 20 21 21 21 22 23 22 21 21 23 24 26 27 26 24 25 26 25 23 23 23 23 23 23 21 20 21 20 19 18 18 19 19 19 18 17 16 15 15 14 13 12 11 11 11 11 10 11 11 11 10 9 8 7 5 5 5 4 4 4 4 5 5 3 3 3 3 2 2 2 1 2 3 5 6 7 8 9 9
22 23 23 22 20 20 22 22 21 21 22 22 21 20 19 20 24 26 27 27 25 26 26 25 24 24 24 23 23 23 22 22 22 21 19 18 18 19 19 19 19 17 15 15 14 13 12 11 11 12 12 12 12 12 12 11 11 10 8 7 7 6 5 5 4 4 5 6 5 4 4 4 4 3 3 3 2 3 4 6 7 7 8 8 8
25 26 27 25 23 22 23 22 21 22 22 22 21 19 18 19 24 27 28 28 26 25 25 24 23 23 23 22 22 22 22 22 22 21 20 19 18 18 18 18 17 16 14 14 13 11 11 11 12 13 13 13 13 12 12 12 11 10 9 8 7 7 6 6 5 6 6 7 6 5 5 5 5 4 4 3 4 4 5 6 7 7 7 7 8
27 28 29 28 26 24 23 23 22 22 22 22 21 20 18 18 20 22 27 28 25 23 23 23 22 22 22 23 23 22 21 22 23 22 20 19 18 17 16 15 15 14 13 12 11 10 11 12 13 14 14 14 13 13 13 12 11 10 9 8 8 8 7 7 7 7 7 7 7 7 6 6 6 5 4 4 5 5 6 6 7 7 7 7 7
28 28 29 29 28 26 24 24 24 23 23 22 21 20 18 17 18 17 20 25 25 22 22 22 22 23 24 25 24 22 21 22 24 23 21 20 18 16 16 15 15 14 12 12 11 11 12 12 13 13 14 14 13 13 13 12 11 10 9 9 9 9 8 8 8 8 8 8 8 8 8 7 6 5 5 5 6 6 6 6 6 7 8 8 7
30 30 30 30 30 29 26 25 25 25 24 23 22 20 18 18 19 17 16 19 22 22 23 24 24 26 28 28 24 23 23 22 23 24 23 22 19 17 16 16 16 15 14 13 12 12 12 12 12 13 13 13 13 13 12 11 10 10 10 10 10 9 10 9 9 9 9 9 9 9 9 8 7 6 6 6 6 6 5 6 7 8 9 9 8
32 31 32 32 31 30 29 27 25 24 23 24 23 21 19 19 20 18 17 18 22 25 26 26 25 26 29 29 24 23 24 23 23 23 23 21 19 18 16 15 16 16 15 14 13 13 13 12 12 12 12 12 12 12 12 11 11 11 11 11 10 10 11 11 10 10 11 11 11 10 9 9 7 7 7 7 7 6 5 6 7 8 9 10 10
33 31 32 32 31 31 31 29 27 24 23 24 23 22 21 20 20 19 18 19 24 29 28 26 25 25 27 28 25 23 24 24 22 21 20 20 19 17 15 15 16 16 15 14 13 14 14 13 12 12 12 12 12 13 12 12 12 12 12 12 12 12 12 12 11 12 12 12 12 11 10 9 8 8 8 8 6 5 5 6 7 8 9 11 11
34 33 33 33 33 33 31 29 28 25 24 24 23 22 21 21 20 20 18 16 19 25 27 26 25 24 24 25 23 20 22 22 20 18 18 18 18 16 15 15 15 15 15 13 13 13 14 13 13 13 13 13 13 13 13 13 13 13 13 13 13 13 13 13 13 13 13 13 13 12 11 10 9 9 9 7 6 5 5 6 7 8 9 11 12
35 35 35 35 35 33 30 29 27 25 24 24 23 22 21 21 21 20 19 16 16 19 21 20 20 19 18 19 19 18 19 18 17 18 17 17 17 15 15 15 16 15 14 14 14 13 13 14 14 14 14 14 14 14 15 15 14 14 14 14 14 14 14 14 14 14 14 14 14 13 12 11 10 10 9 7 6 5 4 5 7 7 8 10 11
35 35 36 36 35 33 31 29 26 24 23 23 23 22 22 22 22 20 18 17 16 17 18 16 15 15 15 16 17 17 18 17 18 19 18 17 17 16 15 16 16 16 15 15 15 14 14 15 15 15 14 15 15 16 16 16 15 14 15 15 15 15 14 14 15 15 15 15 15 14 12 11 11 10 9 7 6 5 4 5 6 7 7 8 10
34 33 34 35 34 33 32 30 26 24 24 24 23 22 22 22 23 22 20 17 15 16 17 16 14 14 15 16 15 16 17 17 18 19 18 18 17 16 16 16 17 18 17 16 16 15 16 16 15 15 15 16 16 17 17 17 16 16 16 16 16 15 15 15 16 16 16 16 15 14 13 12 12 11 9 8 7 6 4 5 6 7 7 7 9
32 32 32 33 34 34 34 33 29 25 24 24 23 22 22 23 24 23 22 20 18 18 17 15 14 14 15 16 15 15 16 17 18 18 17 18 17 16 17 17 18 18 18 16 15 15 16 16 15 15 16 17 18 18 18 18 17 17 17 17 16 16 16 16 17 17 16 16 16 15 14 13 12 11 10 9 8 7 6 6 7 7 7 6 8
32 32 32 32 33 33 33 33 31 27 25 25 24 22 22 24 24 24 24 23 21 21 20 17 16 15 17 18 17 16 17 17 18 17 16 17 18 17 17 17 18 18 17 16 16 16 16 16 16 17 17 17 18 18 18 18 18 18 17 17 17 16 16 17 17 17 16 16 16 16 15 14 13 12 11 10 10 9 8 7 8 8 8 8 8
33 33 33 33 33 33 33 32 31 28 27 26 25 23 23 23 23 24 25 24 23 22 21 19 18 18 20 20 18 17 17 18 17 17 18 19 20 19 17 17 18 19 19 18 18 17 17 18 18 18 18 18 18 18 18 18 18 18 18 17 17 17 17 17 17 16 16 17 17 16 16 15 15 13 12 12 11 11 10 10 9 9 9 9 9
35 33 33 35 34 34 34 33 31 29 28 28 26 24 23 22 23 25 26 25 24 22 22 20 20 20 21 20 19 18 18 18 19 20 22 22 20 18 17 18 19 20 21 21 20 18 18 19 19 19 18 18 18 19 19 19 18 18 18 17 17 17 17 17 17 17 17 17 17 17 16 16 16 15 14 13 13 13 12 12 12 11 11 10 10
37 35 34 35 36 35 35 34 32 30 29 28 26 25 24 23 24 26 27 26 24 22 22 21 21 22 22 21 20 20 20 21 22 23 24 23 20 18 19 20 20 21 22 21 20 19 19 20 20 19 19 19 19 19 19 19 19 19 18 17 17 17 17 17 17 17 17 18 18 17 17 17 17 17 16 15 15 15 15 15 15 14 13 12 12
38 36 36 36 35 35 36 35 33 30 29 28 28 28 27 25 26 27 27 26 24 23 23 23 23 23 23 22 22 22 23 24 24 24 23 22 21 20 20 20 20 20 21 20 20 20 20 20 20 20 20 20 19 19 19 19 19 19 18 17 17 17 17 17 17 17 17 18 18 18 18 19 19 18 18 17 16 17 17 17 17 17 17 16 15
38 37 37 37 34 33 35 35 33 31 29 28 28 28 27 27 27 27 26 26 25 24 24 24 25 25 24 24 24 24 24 24 24 23 22 22 22 21 21 20 20 20 20 21 21 21 21 21 21 21 21 20 20 19 19 19 19 19 18 17 17 17 17 17 17 17 18 19 19 19 19 20 20 20 19 19 18 18 19 19 20 20 20 19 19
39 38 38 37 34 31 33 34 32 30 29 29 29 28 27 27 26 26 26 27 27 26 26 26 26 26 26 25 25 25 24 24 23 23 23 23 23 22 21 21 20 19 19 21 21 20 21 21 21 21 21 21 20 19 19 19 19 19 18 18 17 17 17 17 18 18 19 19 19 20 20 21 22 22 21 21 20 20 21 21 22 22 23 23 22
38 38 37 37 34 31 31 32 31 30 30 31 30 29 27 27 26 26 27 27 28 28 28 28 28 27 27 26 25 25 25 23 22 22 23 23 23 21 22 22 22 20 20 21 20 21 22 21 21 21 21 20 20 19 19 19 19 19 19 18 18 18 18 18 19 19 20 20 21 21 22 23 23 23 22 22 22 22 23 23 24 24 25 25 26
37 37 36 36 34 31 32 32 30 31 31 31 31 30 27 26 27 27 27 27 28 28 28 28 28 28 27 26 25 25 25 24 24 24 24 24 23 23 23 23 23 22 21 20 21 22 22 20 21 21 21 21 20 20 20 20 20 20 19 19 19 19 19 19 20 20 21 22 22 23 23 24 24 24 24 24 24 24 25 25 26 26 27 28 28
34 34 34 35 33 31 31 31 30 30 30 31 31 30 27 27 27 27 28 29 29 28 28 28 27 27 27 26 26 26 26 26 26 25 25 24 24 25 24 23 23 23 21 20 21 21 20 19 20 20 21 21 21 21 21 21 21 21 20 20 20 20 21 21 21 21 22 23 23 24 24 24 24 24 25 26 26 26 27 27 28 29 29 30 30
31 32 33 33 32 31 31 32 32 33 31 31 31 29 27 26 28 28 29 30 30 28 28 27 27 27 27 26 26 27 27 27 27 26 25 24 24 24 24 24 24 22 21 20 20 20 20 19 20 20 21 21 21 20 20 20 20 21 21 21 21 21 22 21 22 22 23 24 24 24 24 24 25 25 26 27 28 29 29 30 30 31 32 32 32
30 31 32 33 33 32 31 31 32 32 31 31 30 28 26 27 29 30 31 30 29 28 27 27 27 27 27 27 27 27 27 27 28 27 26 25 24 24 25 25 24 22 21 20 19 20 21 21 20 21 21 20 20 19 19 19 19 20 21 21 21 22 22 22 22 23 24 24 25 25 25 25 26 27 28 29 30 31 31 32 33 33 33 33 33
30 32 32 32 34 34 31 31 32 31 31 31 29 26 26 28 30 31 32 30 29 28 27 27 27 27 28 28 28 28 27 28 28 28 27 25 25 25 25 24 24 22 21 20 20 21 22 21 21 21 21 21 20 19 19 19 19 20 21 22 22 23 24 24 24 25 25 25 25 26 27 27 28 29 30 31 32 32 33 34 34 35 35 35 36
30 32 33 32 34 34 32 32 33 32 33 32 28 26 27 29 32 32 32 30 29 28 28 28 28 28 28 28 28 28 28 28 28 28 27 26 25 25 24 23 23 22 21 21 22 23 22 22 21 21 21 21 21 20 20 20 21 22 23 23 24 24 25 25 25 25 25 26 27 28 29 29 30 30 31 32 33 34 34 34 35 36 37 37 38
30 32 33 34 35 34 32 33 32 31 31 31 28 26 28 30 32 33 31 30 29 29 29 29 28 28 28 28 28 28 29 29 29 29 28 27 26 25 24 23 23 22 22 23 24 24 23 22 22 22 22 22 22 22 22 22 23 24 24 24 25 25 25 26 26 26 26 27 28 29 30 30 30 31 32 33 34 35 35 36 37 38 39 39 40
29 32 34 34 33 32 31 32 31 29 29 30 29 27 29 31 32 32 31 29 29 29 29 29 28 28 28 29 29 29 30 30 30 30 29 28 28 27 26 25 24 23 24 24 25 25 24 23 24 24 24 23 24 24 24 24 25 24 25 25 26 26 27 27 27 27 27 28 29 30 30 30 31 32 33 33 34 35 36 37 38 39 40 40 41
25 29 31 31 30 30 30 29 29 29 29 31 30 29 30 32 32 31 31 30 30 30 29 28 27 28 29 30 30 30 30 30 30 30 30 29 29 28 27 26 26 25 24 24 26 26 25 26 27 26 25 24 24 24 24 25 25 25 25 26 27 28 28 28 28 28 28 29 30 31 31 31 32 33 34 35 35 36 38 39 39 40 41 41 42
20 23 26 27 27 27 27 27 29 30 31 32 32 30 31 32 33 32 32 31 31 30 29 28 27 28 29 30 30 30 31 30 30 30 30 30 30 29 27 27 27 27 25 25 26 27 28 29 27 26 26 26 26 25 25 26 27 26 26 27 28 28 29 29 29 28 28 29 30 31 31 32 33 34 35 37 36 37 40 40 40 41 42 43 43
19 22 22 24 25 25 25 26 29 30 31 33 34 32 31 32 33 33 32 32 31 30 30 29 29 29 30 31 31 31 30 30 29 29 29 30 30 30 29 28 28 29 28 27 28 29 31 30 28 26 27 27 28 28 27 27 28 27 27 28 28 29 29 30 29 28 28 29 31 32 33 33 34 36 37 38 38 39 40 41 42 43 44 44 45
19 23 25 25 24 24 25 26 28 31 32 33 34 32 31 32 33 32 32 32 32 31 31 30 30 30 30 31 31 31 30 30 29 29 29 30 31 31 31 30 30 30 31 31 31 31 31 31 29 28 28 28 29 29 28 28 29 29 28 29 29 30 30 30 30 29 30 32 33 33 34 35 35 37 38 38 38 40 42 43 44 45 46 46 46
20 21 26 29 28 27 27 28 29 30 32 34 34 33 33 33 34 33 33 33 32 32 32 32 32 32 31 31 31 31 31 31 30 30 30 31 31 32 31 31 31 31 31 32 32 31 31 30 29 28 30 30 29 28 29 31 31 30 29 30 30 31 31 31 32 32 33 35 35 35 37 36 35 37 40 40 39 41 44 46 46 47 47 47 47
24 21 22 27 30 31 31 30 30 31 32 33 35 34 34 35 35 34 34 34 34 33 33 33 34 34 33 32 31 32 32 32 32 32 32 32 32 33 32 31 31 31 31 31 32 31 30 29 28 29 30 29 29 30 34 35 32 31 32 32 32 33 33 34 34 34 35 36 36 37 38 38 36 37 41 42 42 42 44 46 46 46 47 49 50
27 25 23 23 26 30 32 33 32 32 32 33 35 36 36 37 36 35 35 35 35 35 35 35 35 35 35 34 33 33 32 33 33 33 33 33 33 33 33 32 32 32 32 32 32 31 30 29 31 32 31 29 31 34 35 34 32 33 34 33 33 35 36 36 36 36 36 37 38 39 40 41 40 39 39 41 42 41 43 45 45 45 48 51 52
30 28 26 25 24 25 29 33 33 32 32 34 36 37 38 38 38 36 35 36 37 36 36 36 36 36 36 36 36 35 34 34 34 34 35 35 35 35 35 34 34 34 34 34 33 33 31 31 32 34 33 33 35 36 36 35 34 35 34 34 35 37 38 39 38 37 38 38 38 39 40 41 41 39 37 38 40 41 43 46 48 49 51 53 54
33 31 29 28 26 24 26 30 32 33 34 35 36 37 39 39 39 38 38 38 38 38 37 37 36 35 36 38 39 38 37 36 36 36 36 36 36 37 37 37 36 36 36 36 36 36 34 33 33 34 34 35 35 35 35 35 35 36 37 37 38 39 40 40 39 39 39 39 39 39 39 40 41 39 37 38 41 43 45 48 51 53 55 55 56
34 34 32 30 29 28 28 29 31 33 34 34 35 37 39 40 40 40 41 41 40 39 40 41 40 38 38 39 39 39 40 40 39 37 37 37 38 38 38 38 39 39 39 39 39 39 38 37 37 36 35 36 35 34 34 35 36 40 42 40 38 38 40 41 40 41 41 39 37 39 41 41 41 42 41 43 46 48 49 52 54 56 57 57 58
Wind_Direction
281 282 282 282 281 279 275 272 269 267 264 265 267 270 274 275 277 278 278 280 282 280 277 273 268 265 259 253 253 253 255 265 277 284 281 278 277 269 267 268 273 276 280 288 296 305 311 313 314 312 309 304 297 288 282 281 284 288 293 299 304 309 313 318 326 328 327 326 331 335 340 347 356 1 3 2 1 1 3 6 8 11 10 10 15
279 280 279 278 278 276 273 270 268 266 264 264 266 269 273 276 278 280 280 281 282 277 273 270 266 263 259 252 251 256 263 267 272 279 278 276 274 267 264 264 269 276 280 284 287 295 305 310 311 310 308 305 301 295 289 287 288 290 295 300 306 311 315 322 327 327 328 331 336 342 353 360 1 2 2 3 2 2 5 6 5 9 14 22 31
276 276 275 275 273 271 270 268 266 264 264 264 266 268 272 275 277 279 280 280 279 274 269 266 263 261 257 251 251 257 265 268 271 276 274 272 272 265 261 261 267 275 280 283 283 287 298 307 308 306 305 306 305 301 295 293 292 294 297 303 308 313 319 323 324 326 329 334 341 350 357 357 357 359 360 2 1 358 2 5 6 16 30 41 48
272 271 272 271 269 268 268 267 265 263 262 263 264 267 269 272 275 276 275 274 272 269 266 262 260 260 256 251 252 258 265 270 272 271 269 269 268 263 259 259 264 271 276 278 278 283 292 301 305 303 302 306 309 306 302 299 296 297 300 303 307 313 319 320 321 326 331 338 345 349 349 350 353 354 356 359 359 359 4 9 17 35 50 55 54
271 269 269 268 266 266 267 266 264 262 261 261 262 264 267 269 271 271 270 270 266 263 262 261 261 261 256 251 254 261 268 271 269 266 265 266 264 262 259 257 260 266 270 273 275 281 288 295 300 300 299 303 308 307 305 301 299 300 301 302 305 312 315 315 319 326 333 341 343 338 339 344 349 350 355 3 4 7 14 25 41 56 59 55 51
269 268 266 265 265 264 264 263 263 263 261 259 259 262 266 268 269 269 268 267 262 257 256 256 259 260 256 254 258 265 269 268 265 262 262 264 264 263 260 257 260 264 268 273 278 282 286 293 298 299 297 300 304 305 305 303 301 301 301 301 303 307 307 309 318 326 333 336 331 329 331 338 346 351 2 14 15 17 29 49 60 61 55 48 40
268 265 264 264 265 264 263 262 263 264 264 260 259 262 266 269 272 271 269 266 259 254 253 254 256 257 256 256 259 265 267 265 262 260 261 263 265 264 260 257 261 266 269 274 281 284 286 291 295 297 297 298 299 299 302 301 300 300 299 299 299 298 298 305 315 321 325 323 320 323 326 333 347 1 17 27 27 33 51 64 63 56 48 36 23
266 263 262 264 264 263 262 263 263 264 265 263 262 263 265 268 270 271 270 267 259 254 255 256 257 257 256 256 257 259 261 260 259 260 261 262 264 264 259 257 262 268 268 271 279 284 286 290 294 296 294 293 292 292 296 296 294 293 292 292 292 292 294 301 308 311 311 313 317 320 321 334 356 11 29 37 41 54 65 64 56 48 34 17 8
270 267 265 265 263 262 263 264 264 264 265 265 264 263 264 265 266 268 268 266 259 254 254 256 256 254 252 255 257 257 259 258 258 260 261 262 262 260 255 255 264 270 270 272 276 282 286 289 293 294 290 287 286 287 290 289 287 284 283 284 285 288 290 290 291 294 301 310 316 316 317 335 3 17 37 50 59 67 67 57 40 27 13 3 359
276 273 270 267 265 264 264 265 267 267 266 265 264 264 264 264 264 264 264 264 258 250 250 252 252 247 245 251 256 256 258 258 259 260 261 261 259 254 250 254 264 271 274 275 277 281 285 287 289 289 285 283 283 284 284 282 281 280 279 278 280 282 281 277 278 285 295 307 309 306 309 329 356 17 53 72 81 80 64 37 11 3 358 355 355
283 282 278 273 271 270 268 267 267 267 267 266 265 264 265 265 265 263 263 264 257 247 245 248 248 249 249 250 252 254 257 259 259 258 259 258 253 248 250 255 263 269 274 275 276 281 285 285 286 286 283 281 280 280 280 279 279 279 276 274 274 268 259 261 268 276 287 297 296 293 296 291 261 156 128 117 120 84 25 358 350 348 348 351 356
288 287 285 281 279 277 273 269 267 268 269 269 268 267 266 266 265 266 265 263 256 245 241 241 243 248 253 252 249 251 255 256 256 256 256 251 247 248 254 259 263 267 271 271 273 280 283 281 282 283 282 280 277 277 278 277 276 275 275 273 263 250 253 260 261 271 284 284 281 280 270 240 212 186 183 188 207 298 330 335 337 340 345 353 359
289 287 284 281 281 281 278 272 269 270 271 272 272 270 269 269 268 270 269 264 256 244 238 239 240 244 250 250 247 250 253 252 252 254 251 245 245 251 256 259 261 265 267 267 271 276 277 277 278 280 280 278 275 275 274 271 269 270 272 268 255 252 262 264 263 271 276 271 268 262 240 222 208 197 202 216 248 290 315 325 331 338 347 355 360
292 290 286 283 284 281 277 274 272 273 273 274 274 273 277 279 276 272 268 264 256 244 237 238 240 243 247 247 246 249 251 251 250 250 246 243 248 253 255 258 259 262 263 266 270 271 270 271 275 278 278 275 273 272 270 266 266 266 265 262 259 261 259 255 258 261 263 261 255 243 225 217 210 205 212 231 260 291 311 321 329 339 348 354 359
292 292 291 290 290 286 280 278 278 277 276 275 274 275 278 282 280 269 260 260 255 242 237 238 241 244 246 246 245 247 250 252 249 247 243 243 249 252 253 257 259 259 261 264 267 265 264 268 273 276 275 272 269 267 266 265 264 263 260 257 258 261 255 251 254 254 255 253 244 229 218 218 215 211 224 246 272 295 309 319 329 338 346 351 357
287 289 290 290 291 290 286 283 282 281 281 279 277 276 276 280 283 269 254 251 245 236 237 239 240 242 245 244 243 244 247 249 246 243 241 242 246 249 251 258 261 261 261 262 261 259 263 270 274 274 272 267 264 262 263 262 261 260 258 257 257 257 253 250 252 253 251 246 236 222 216 220 219 221 237 257 279 296 308 318 327 337 343 346 354
284 286 287 287 289 289 287 284 282 283 284 282 278 278 278 279 284 279 258 242 232 233 239 239 238 240 243 242 239 239 241 244 244 241 240 242 245 249 252 256 259 261 262 259 258 261 267 272 273 271 268 264 261 259 258 257 256 256 255 256 256 253 250 248 251 253 248 240 231 220 217 222 223 230 247 267 282 294 305 317 330 337 338 340 348
281 283 284 286 288 289 287 283 281 282 283 281 278 277 275 271 273 277 269 245 232 235 243 244 242 240 241 238 230 232 239 242 241 239 241 244 247 250 252 255 257 258 260 260 260 263 266 268 269 268 266 262 259 257 255 253 252 252 252 254 253 251 249 250 252 252 246 237 229 221 219 224 228 239 256 272 281 291 305 321 333 335 334 336 340
276 278 279 281 285 288 287 283 279 278 278 277 275 272 269 268 268 268 269 260 244 239 244 248 245 241 241 236 227 230 238 240 239 239 240 243 246 249 250 253 256 258 261 263 263 261 259 260 263 264 263 259 255 253 253 252 251 251 251 251 250 249 249 250 252 252 246 237 228 222 222 227 234 246 261 272 279 290 309 325 333 333 335 335 335
273 274 274 275 279 284 286 285 280 275 273 273 270 268 269 269 269 267 268 266 249 240 243 246 245 245 242 237 231 231 235 237 238 236 237 243 246 248 250 253 256 258 261 262 261 257 255 256 258 260 261 257 254 253 254 255 254 252 251 250 250 249 249 250 252 250 245 235 228 223 224 231 239 252 264 270 276 292 312 327 331 333 338 337 334
274 273 271 269 273 280 283 284 282 276 273 272 267 265 268 268 267 266 266 267 250 241 242 243 247 249 241 232 229 228 230 232 233 233 238 244 245 247 253 254 253 255 258 258 255 255 256 258 259 259 258 256 254 254 257 259 258 255 252 250 249 249 249 250 251 250 244 234 228 225 226 234 244 256 264 268 276 294 314 326 329 335 342 340 335
275 270 268 265 266 272 278 279 279 276 273 270 265 264 267 269 269 264 261 262 253 243 242 242 241 237 227 222 221 225 230 230 233 241 244 243 245 250 251 248 248 249 251 251 249 253 258 260 260 259 256 255 255 257 260 262 261 259 255 251 250 248 248 249 251 250 244 234 228 226 229 237 249 258 262 265 276 292 311 322 323 332 341 339 333
274 267 264 263 263 266 272 273 272 270 269 267 264 263 266 268 265 262 260 260 253 243 240 235 225 216 215 219 223 229 230 230 237 243 244 245 250 254 249 245 247 246 246 247 247 252 256 256 256 256 255 255 257 259 261 263 264 262 257 252 250 249 248 249 250 249 243 234 229 227 231 240 251 258 260 263 272 283 299 310 313 323 333 332 327
273 266 261 262 264 266 268 269 267 264 263 264 261 258 260 261 258 258 257 256 251 242 237 233 226 221 221 223 227 232 229 232 239 241 242 244 245 248 249 247 248 247 246 246 249 253 255 256 257 255 254 256 259 260 261 262 263 263 259 254 250 249 249 250 250 248 242 234 229 230 235 243 252 257 256 258 265 270 278 290 300 308 318 322 319
274 269 263 262 264 265 266 267 266 261 259 259 256 252 252 253 254 255 253 250 246 240 236 235 233 229 228 226 228 232 233 236 241 244 247 246 243 245 247 248 251 249 245 245 250 257 259 259 258 256 256 258 260 261 261 261 261 260 258 254 251 250 250 251 250 247 241 233 231 233 238 245 252 254 251 252 258 259 260 271 282 290 297 305 307
272 270 267 265 263 262 263 265 264 258 253 253 253 251 249 251 253 254 251 246 241 240 239 237 234 230 229 229 229 232 237 238 239 241 244 245 248 248 244 247 252 250 248 250 254 258 261 260 257 256 257 258 260 261 261 261 259 258 257 254 251 251 250 251 250 246 240 234 232 235 241 248 252 251 248 250 255 254 252 259 270 277 284 289 292
270 270 269 267 264 261 261 263 261 256 251 249 249 250 249 250 253 252 248 243 239 239 238 235 233 229 229 232 231 230 234 237 235 237 242 246 249 248 246 248 249 249 253 258 259 260 261 259 257 257 257 258 259 261 261 260 259 257 256 253 250 249 249 250 248 245 240 235 233 237 244 250 252 249 246 248 253 254 253 255 261 269 275 280 284
268 269 269 267 265 262 261 260 258 253 249 246 245 248 249 249 251 250 247 244 241 237 234 233 232 230 231 233 232 229 231 234 234 238 244 246 243 243 247 249 249 251 256 259 260 262 262 260 259 259 259 259 259 261 261 261 259 257 254 252 248 246 247 248 246 243 239 235 235 239 246 252 253 249 246 248 253 255 254 253 255 260 267 273 278
268 266 267 268 265 261 257 256 255 251 247 245 241 241 245 246 247 247 245 244 241 236 236 237 233 231 231 230 230 230 231 234 236 238 242 243 242 245 248 249 251 255 259 260 259 261 263 263 262 261 260 259 259 260 262 261 259 255 252 250 247 245 245 245 244 242 239 236 236 241 249 254 254 250 247 249 253 256 256 254 253 256 260 266 271
270 266 264 266 267 263 254 250 251 250 247 245 241 238 240 241 243 245 244 243 241 238 237 236 233 233 232 231 232 232 231 233 236 239 242 244 245 248 248 247 251 257 260 263 262 261 263 263 263 262 259 257 258 260 260 259 257 253 250 248 246 245 244 244 242 241 239 238 238 243 251 256 255 251 249 249 253 257 258 256 256 256 258 262 266
272 267 262 263 267 263 251 246 248 248 247 245 241 238 237 237 239 242 245 245 242 239 236 235 235 235 235 235 236 235 234 234 236 241 245 246 246 248 247 246 251 258 262 264 265 262 260 261 263 261 257 256 257 258 258 258 256 252 249 247 247 246 244 242 241 240 238 239 240 245 253 257 256 253 251 251 254 258 260 260 259 259 260 261 264
272 269 264 261 264 260 247 243 245 245 245 243 240 237 236 236 237 239 241 242 241 239 237 236 237 237 238 239 239 238 237 237 238 241 244 246 247 249 250 248 250 259 262 262 261 258 258 261 262 258 256 257 257 256 256 257 255 250 247 247 248 246 244 242 241 240 239 240 243 248 254 257 257 255 254 254 256 259 261 263 263 262 263 263 265
271 269 265 261 261 257 244 238 241 243 242 242 240 237 236 236 236 236 237 239 239 239 237 237 238 239 240 241 241 242 241 240 241 241 243 247 249 250 252 248 249 256 260 257 255 256 259 260 259 257 257 257 256 255 255 254 251 248 246 247 247 245 242 240 240 240 240 241 245 250 255 258 259 258 257 257 257 260 262 264 265 265 265 266 266
269 268 264 260 259 254 242 236 239 241 240 240 240 238 236 236 236 236 236 237 238 239 239 239 240 240 241 241 242 243 244 243 244 245 247 249 251 253 252 247 249 256 257 253 252 255 257 256 256 257 257 257 256 255 254 251 248 246 245 245 245 244 241 240 241 241 242 244 248 253 257 260 261 261 260 259 260 261 262 264 266 267 267 268 269
266 263 260 257 255 250 242 236 237 239 239 240 241 239 238 238 238 238 237 236 237 238 239 240 241 242 243 243 243 244 246 246 246 247 249 249 250 251 251 249 253 255 254 251 250 252 253 254 256 257 258 259 258 255 253 249 246 245 245 244 243 243 243 244 244 245 246 249 253 257 260 263 263 263 262 262 262 263 263 265 266 268 269 270 271
262 258 257 255 251 247 244 238 236 239 241 241 241 239 238 239 241 240 238 237 237 239 240 241 243 245 246 247 247 248 248 249 249 248 248 249 249 250 251 253 254 254 252 252 249 249 252 257 259 259 259 259 257 255 253 249 245 244 243 242 242 244 245 246 248 249 251 254 257 260 263 265 265 264 263 263 263 264 264 266 267 268 270 272 273
259 254 253 251 247 244 242 238 235 237 240 240 240 239 238 239 241 240 239 240 240 240 242 243 245 246 249 250 251 251 251 250 251 250 248 248 248 247 248 250 251 251 252 252 249 248 253 258 258 258 257 256 254 253 251 248 244 242 243 244 244 246 248 249 250 251 254 257 260 263 265 266 265 264 263 263 263 264 265 266 268 271 273 274 275
256 251 250 248 241 237 237 237 235 236 238 239 238 238 239 240 241 240 240 241 242 243 245 246 246 248 250 252 252 252 251 251 251 252 251 250 248 246 246 247 249 250 252 252 248 247 251 256 256 254 253 251 251 250 249 247 244 243 245 246 248 250 251 252 253 254 256 259 261 263 264 264 264 264 263 264 264 265 267 269 271 273 275 276 277
256 250 248 243 234 231 236 238 237 239 242 241 238 238 241 243 242 242 242 242 244 246 247 248 248 248 250 251 252 251 251 250 251 253 254 253 251 248 246 247 248 249 252 252 248 247 250 252 252 251 250 250 250 248 247 247 247 248 248 249 251 253 255 256 257 257 258 260 261 262 264 264 265 265 266 267 268 269 271 273 275 276 277 278 279
257 248 245 238 227 227 234 234 234 238 240 240 240 240 243 245 244 243 243 244 247 248 248 249 249 250 251 251 251 252 251 251 252 253 255 255 253 251 248 247 248 248 249 250 247 247 249 250 250 250 251 251 250 248 248 249 250 252 253 254 255 256 257 258 258 258 259 260 262 264 266 266 268 268 269 270 272 273 275 276 277 278 279 281 282
252 243 240 233 224 226 233 233 232 233 234 237 239 241 243 246 246 244 244 246 247 247 247 248 249 250 252 252 251 252 252 253 254 254 255 256 255 252 249 247 245 242 244 247 247 246 246 248 250 250 250 251 250 249 249 251 253 255 256 257 257 257 257 257 258 259 260 262 265 267 267 268 269 270 271 273 274 276 276 277 278 280 281 283 284
246 236 231 227 225 229 234 234 231 230 233 237 238 239 243 245 245 244 246 247 247 246 245 246 247 249 251 252 252 252 253 254 255 256 256 256 255 254 250 247 244 241 240 243 245 246 246 248 249 250 250 250 250 249 250 253 255 256 256 256 256 257 258 258 259 260 262 265 267 268 268 269 269 270 272 273 274 276 277 278 280 281 282 283 285
246 236 230 226 227 231 235 235 232 231 235 239 238 238 242 245 244 245 246 247 247 246 245 245 247 249 251 252 252 252 253 254 255 256 256 255 255 254 251 248 246 244 242 241 243 245 246 248 249 251 252 251 250 251 252 255 256 256 255 255 256 256 258 259 260 262 265 267 267 268 269 269 270 271 272 274 275 277 279 280 281 282 283 284 285
252 239 234 231 233 237 239 238 235 233 236 238 238 238 241 244 245 245 246 246 246 245 245 245 246 248 251 253 253 252 253 254 255 255 255 255 255 254 252 250 247 245 244 245 246 247 249 252 252 252 253 254 254 255 256 256 257 257 256 257 257 258 258 260 263 266 268 267 267 269 270 270 272 274 275 277 279 279 280 281 282 282 284 285 285
267 242 235 232 234 239 243 242 238 235 236 237 237 238 240 243 245 244 245 245 245 245 245 245 246 247 250 252 253 253 254 255 255 255 254 254 254 254 253 253 251 248 246 247 249 250 253 255 255 253 254 255 257 258 257 257 257 258 259 259 259 260 261 263 266 268 269 268 269 271 272 273 276 279 279 279 280 281 282 282 283 284 285 285 286
287 258 240 235 234 237 242 245 244 241 239 238 239 239 239 241 244 245 244 244 245 245 245 245 245 247 249 251 252 254 255 256 256 256 255 254 255 255 254 254 253 252 250 249 250 251 253 256 258 259 259 260 260 257 255 257 259 259 258 258 259 261 264 266 267 269 270 271 273 274 275 276 278 279 281 282 282 283 283 283 284 285 286 287 288
293 281 258 244 239 238 239 242 245 247 245 242 241 241 240 240 243 246 246 246 245 245 245 246 246 246 247 249 251 253 255 256 256 256 255 255 255 255 255 254 254 253 251 250 250 250 252 255 257 257 256 259 259 256 255 258 260 259 259 261 262 265 268 269 270 272 273 275 276 277 278 279 279 279 281 283 283 283 283 283 285 287 288 288 289
289 288 280 264 249 241 239 241 243 246 249 247 244 243 241 240 241 244 247 248 248 247 246 246 246 247 248 248 249 251 253 255 256 256 255 255 255 255 255 255 254 252 250 249 249 249 250 251 252 251 250 251 253 254 256 258 259 259 261 264 268 271 272 272 273 274 276 276 278 279 281 282 282 281 282 283 283 282 282 284 286 287 287 288 290
284 284 283 280 269 254 246 244 243 241 244 246 246 245 244 242 242 243 246 248 249 248 247 246 246 248 250 250 250 250 251 253 255 256 256 255 255 255 255 254 254 253 251 250 250 250 252 252 251 252 253 253 254 257 260 261 260 257 259 266 273 274 273 273 274 274 275 276 278 280 281 282 284 284 281 280 280 280 280 283 286 287 287 289 290
279 280 279 279 278 270 259 253 249 245 242 243 245 245 245 245 245 244 244 246 247 247 245 243 245 250 254 254 252 251 250 251 252 254 256 256 256 255 255 254 254 254 253 252 252 253 254 254 252 253 255 256 257 259 261 260 257 256 261 270 276 276 274 274 274 274 275 278 281 283 283 282 283 283 280 277 277 279 280 282 286 288 288 289 289
272 274 276 276 275 273 267 260 256 252 250 248 247 247 247 247 248 246 245 245 246 247 244 242 247 255 258 255 253 253 252 251 251 252 254 256 256 256 255 255 254 254 254 253 254 254 255 255 254 254 255 256 256 256 255 252 251 257 266 272 274 274 274 275 275 276 279 282 283 282 281 280 280 279 277 275 276 278 280 282 285 287 287 288 288
Height
5837 5836 5836 5836 5837 5838 5839 5840 5840 5841 5842 5841 5841 5840 5839 5838 5838 5838 5838 5838 5838 5837 5837 5837 5837 5837 5837 5838 5838 5838 5838 5839 5839 5838 5838 5838 5838 5837 5837 5837 5838 5838 5837 5837 5836 5836 5835 5835 5834 5834 5834 5833 5833 5833 5833 5833 5833 5833 5833 5833 5833 5833 5833 5832 5832 5832 5832 5831 5831 5831 5830 5830 5830 5830 5829 5829 5829 5828 5828 5827 5826 5826 5826 5825 5824
5835 5834 5834 5834 5835 5836 5837 5837 5838 5839 5839 5839 5839 5838 5837 5836 5836 5836 5836 5836 5836 5835 5835 5835 5835 5835 5835 5836 5836 5836 5837 5837 5837 5837 5837 5836 5836 5836 5836 5836 5836 5836 5836 5836 5835 5835 5835 5834 5833 5833 5833 5833 5832 5832 5832 5832 5832 5832 5832 5832 5832 5832 5832 5832 5831 5831 5831 5831 5830 5830 5830 5830 5829 5829 5829 5829 5828 5828 5827 5827 5826 5826 5825 5825 5824
5833 5832 5832 5832 5832 5833 5834 5835 5836 5836 5837 5837 5837 5836 5835 5835 5834 5834 5834 5834 5834 5834 5834 5834 5834 5833 5833 5834 5834 5835 5835 5835 5835 5835 5835 5835 5835 5835 5835 5835 5835 5835 5835 5834 5834 5834 5834 5833 5833 5832 5832 5832 5832 5831 5831 5831 5831 5831 5831 5831 5831 5831 5831 5831 5830 5830 5830 5830 5830 5830 5830 5829 5829 5829 5829 5828 5828 5828 5827 5827 5826 5826 5825 5825 5824
5830 5830 5829 5829 5830 5831 5832 5832 5833 5834 5834 5835 5834 5834 5834 5833 5832 5832 5832 5832 5832 5832 5832 5832 5832 5832 5832 5832 5832 5833 5834 5834 5834 5833 5833 5833 5833 5833 5833 5833 5834 5834 5833 5833 5833 5833 5833 5832 5832 5832 5831 5831 5831 5831 5831 5830 5830 5830 5831 5830 5830 5830 5830 5830 5830 5830 5830 5829 5829 5829 5829 5829 5829 5828 5828 5828 5828 5827 5827 5827 5826 5826 5825 5825 5825
5828 5828 5827 5827 5827 5828 5829 5830 5830 5831 5832 5832 5832 5832 5832 5831 5831 5830 5830 5830 5831 5830 5830 5831 5831 5830 5830 5830 5831 5831 5832 5832 5832 5832 5832 5832 5831 5831 5832 5832 5832 5832 5832 5832 5832 5832 5832 5831 5831 5831 5831 5830 5830 5830 5830 5830 5829 5829 5829 5829 5829 5829 5829 5829 5829 5829 5829 5829 5829 5829 5829 5828 5828 5828 5828 5828 5827 5827 5827 5827 5826 5826 5826 5825 5825
5826 5826 5825 5824 5825 5826 5827 5827 5828 5828 5829 5830 5830 5829 5829 5829 5829 5828 5828 5828 5828 5828 5828 5829 5829 5829 5829 5829 5829 5830 5831 5831 5831 5831 5831 5831 5830 5830 5830 5830 5831 5831 5831 5831 5831 5831 5831 5830 5830 5830 5829 5829 5829 5829 5829 5829 5828 5828 5828 5828 5828 5828 5828 5828 5829 5829 5829 5829 5829 5829 5828 5828 5828 5827 5827 5827 5827 5827 5827 5827 5826 5826 5826 5825 5825
5824 5824 5823 5823 5823 5824 5824 5825 5825 5825 5826 5827 5827 5827 5827 5827 5826 5825 5825 5826 5826 5826 5826 5827 5827 5827 5827 5827 5828 5828 5829 5829 5829 5829 5829 5829 5829 5829 5829 5829 5829 5830 5830 5830 5830 5830 5829 5829 5829 5828 5828 5828 5828 5828 5828 5828 5827 5828 5828 5827 5827 5827 5828 5828 5828 5828 5828 5828 5828 5828 5828 5827 5827 5827 5827 5827 5827 5827 5827 5827 5827 5826 5826 5825 5825
5822 5822 5822 5822 5822 5821 5821 5822 5822 5823 5823 5824 5824 5824 5824 5824 5824 5823 5823 5823 5824 5824 5824 5825 5825 5825 5825 5826 5826 5827 5827 5827 5827 5827 5827 5827 5827 5827 5828 5828 5828 5829 5829 5829 5829 5828 5828 5828 5827 5827 5827 5827 5827 5827 5827 5826 5826 5827 5827 5827 5827 5827 5827 5827 5827 5828 5828 5828 5828 5827 5827 5827 5827 5827 5827 5827 5827 5827 5827 5827 5826 5826 5826 5825 5825
5820 5820 5820 5821 5820 5819 5819 5819 5819 5820 5820 5821 5821 5821 5821 5822 5822 5821 5821 5821 5822 5822 5822 5822 5823 5823 5824 5824 5824 5824 5825 5825 5825 5825 5825 5825 5825 5825 5826 5827 5827 5827 5828 5828 5828 5827 5827 5827 5826 5826 5826 5826 5826 5826 5825 5825 5825 5826 5826 5826 5826 5826 5826 5827 5827 5827 5827 5827 5827 5827 5827 5827 5827 5826 5826 5826 5827 5827 5827 5826 5826 5826 5825 5825 5824
5819 5819 5819 5819 5818 5817 5817 5817 5817 5818 5818 5818 5818 5819 5819 5819 5819 5819 5819 5819 5819 5820 5820 5820 5820 5821 5821 5822 5822 5822 5823 5823 5823 5824 5824 5824 5824 5824 5824 5825 5825 5826 5826 5826 5826 5826 5826 5825 5825 5825 5825 5825 5825 5824 5824 5824 5824 5825 5825 5825 5826 5826 5826 5826 5826 5826 5827 5827 5826 5826 5826 5826 5826 5826 5826 5826 5826 5826 5826 5826 5826 5825 5825 5824 5824
5819 5819 5818 5817 5816 5816 5815 5815 5815 5815 5815 5815 5815 5816 5816 5816 5816 5816 5816 5816 5817 5817 5817 5818 5818 5819 5819 5820 5820 5820 5821 5821 5821 5822 5822 5822 5822 5823 5823 5823 5824 5824 5824 5824 5825 5825 5824 5824 5823 5823 5823 5823 5823 5823 5823 5823 5823 5824 5824 5825 5825 5825 5825 5826 5826 5826 5826 5826 5826 5826 5826 5826 5826 5826 5826 5826 5826 5826 5826 5826 5825 5825 5825 5824 5823
5817 5817 5816 5815 5815 5815 5814 5813 5813 5812 5812 5812 5812 5813 5813 5813 5813 5813 5813 5813 5814 5814 5814 5815 5816 5817 5817 5817 5817 5818 5818 5819 5819 5820 5820 5820 5821 5821 5821 5822 5822 5822 5822 5823 5823 5823 5823 5823 5822 5822 5822 5822 5822 5822 5822 5822 5823 5823 5824 5824 5824 5824 5825 5825 5825 5825 5825 5825 5825 5825 5825 5825 5825 5825 5825 5825 5825 5825 5825 5825 5825 5825 5824 5823 5823
5815 5815 5814 5813 5813 5813 5812 5811 5811 5810 5810 5810 5810 5810 5810 5810 5810 5810 5810 5810 5811 5811 5812 5813 5814 5815 5815 5815 5815 5816 5816 5817 5817 5818 5818 5819 5819 5819 5820 5820 5820 5821 5821 5821 5821 5821 5821 5821 5821 5821 5821 5821 5821 5821 5821 5821 5822 5822 5823 5823 5823 5824 5824 5824 5824 5825 5824 5824 5824 5824 5825 5825 5824 5824 5825 5825 5825 5825 5825 5825 5824 5824 5823 5823 5822
5813 5813 5812 5811 5811 5811 5810 5810 5810 5809 5808 5808 5807 5807 5807 5807 5806 5806 5806 5807 5808 5809 5809 5811 5812 5812 5813 5813 5814 5814 5814 5815 5816 5816 5817 5817 5817 5817 5818 5819 5819 5819 5819 5819 5819 5820 5820 5820 5820 5819 5819 5820 5820 5820 5820 5820 5821 5821 5822 5822 5822 5823 5823 5823 5824 5824 5824 5823 5823 5824 5824 5824 5824 5824 5824 5824 5824 5824 5824 5824 5824 5823 5823 5822 5822
5811 5811 5811 5810 5810 5809 5808 5808 5809 5807 5807 5806 5806 5805 5805 5804 5803 5803 5803 5804 5805 5806 5807 5808 5809 5810 5811 5811 5812 5812 5813 5814 5814 5814 5815 5815 5815 5816 5817 5817 5817 5817 5817 5818 5818 5818 5818 5818 5818 5818 5818 5818 5819 5819 5819 5819 5820 5820 5820 5821 5821 5822 5822 5822 5823 5823 5823 5823 5823 5823 5823 5823 5823 5823 5823 5823 5823 5823 5823 5823 5823 5823 5822 5822 5821
5809 5809 5809 5809 5809 5808 5807 5807 5807 5806 5805 5805 5804 5803 5802 5802 5801 5800 5800 5801 5802 5804 5805 5806 5807 5808 5808 5808 5809 5809 5811 5812 5812 5813 5813 5813 5813 5814 5815 5816 5815 5816 5816 5816 5816 5817 5816 5816 5817 5817 5817 5817 5817 5818 5818 5818 5818 5819 5819 5820 5820 5821 5821 5821 5821 5822 5822 5822 5822 5822 5822 5822 5822 5822 5822 5823 5823 5823 5823 5823 5822 5822 5822 5821 5820
5807 5807 5806 5806 5807 5807 5806 5806 5805 5804 5804 5803 5802 5801 5801 5800 5799 5798 5797 5798 5800 5801 5802 5804 5805 5805 5805 5805 5806 5807 5808 5810 5810 5811 5811 5811 5812 5813 5814 5814 5814 5814 5814 5815 5815 5815 5815 5815 5815 5815 5815 5815 5816 5816 5817 5817 5817 5818 5818 5819 5819 5820 5820 5820 5820 5820 5820 5821 5821 5821 5821 5821 5821 5821 5822 5822 5822 5822 5822 5822 5822 5821 5821 5820 5820
5805 5804 5803 5803 5803 5804 5804 5804 5803 5802 5802 5802 5801 5801 5800 5799 5798 5796 5796 5797 5797 5799 5800 5801 5802 5803 5802 5802 5803 5805 5806 5807 5808 5809 5809 5809 5810 5811 5812 5813 5812 5812 5813 5813 5813 5813 5813 5813 5813 5813 5814 5814 5814 5815 5815 5815 5816 5816 5817 5817 5818 5818 5818 5819 5819 5819 5819 5820 5820 5820 5820 5820 5820 5820 5821 5821 5821 5821 5821 5821 5821 5821 5820 5820 5819
5802 5801 5800 5800 5800 5800 5801 5801 5800 5800 5799 5799 5800 5800 5799 5798 5796 5795 5795 5796 5796 5797 5798 5798 5799 5800 5800 5800 5801 5803 5805 5805 5806 5807 5807 5807 5808 5809 5810 5810 5810 5810 5811 5811 5811 5811 5811 5811 5811 5812 5812 5813 5813 5813 5814 5814 5814 5815 5815 5816 5816 5817 5817 5817 5818 5818 5818 5818 5819 5819 5819 5819 5819 5819 5820 5820 5820 5820 5820 5820 5820 5820 5820 5819 5819
5798 5797 5796 5796 5796 5797 5797 5797 5797 5797 5797 5797 5798 5798 5797 5796 5795 5794 5794 5794 5794 5794 5795 5796 5796 5797 5798 5799 5801 5802 5802 5803 5804 5804 5805 5806 5806 5806 5807 5808 5809 5808 5809 5809 5809 5810 5809 5809 5810 5810 5811 5811 5811 5812 5812 5812 5813 5813 5814 5814 5815 5815 5816 5816 5816 5816 5817 5817 5818 5818 5818 5818 5818 5818 5819 5819 5819 5819 5819 5819 5819 5819 5819 5819 5819
5794 5794 5793 5793 5793 5793 5793 5793 5793 5794 5794 5794 5795 5796 5796 5795 5794 5793 5792 5792 5792 5793 5793 5794 5794 5795 5796 5798 5799 5799 5800 5801 5801 5801 5802 5803 5804 5804 5806 5806 5807 5807 5806 5807 5807 5807 5808 5808 5808 5809 5809 5809 5810 5810 5810 5811 5811 5812 5812 5813 5813 5814 5814 5814 5815 5815 5815 5816 5816 5816 5816 5817 5817 5817 5818 5818 5818 5818 5818 5818 5818 5818 5818 5818 5818
5791 5791 5791 5790 5789 5790 5790 5790 5790 5791 5791 5791 5792 5793 5793 5793 5792 5791 5791 5791 5791 5791 5791 5792 5793 5793 5794 5796 5797 5798 5799 5799 5799 5799 5800 5801 5801 5802 5804 5804 5804 5804 5804 5804 5805 5805 5806 5806 5806 5807 5807 5807 5808 5808 5809 5809 5809 5810 5810 5811 5811 5812 5812 5813 5813 5813 5814 5814 5814 5815 5815 5815 5816 5816 5816 5817 5817 5817 5817 5817 5817 5817 5817 5817 5817
5786 5787 5787 5786 5787 5788 5788 5787 5787 5788 5788 5788 5789 5790 5790 5790 5789 5789 5789 5789 5789 5790 5790 5790 5791 5792 5793 5794 5795 5796 5797 5798 5798 5798 5800 5800 5800 5801 5801 5802 5802 5802 5802 5802 5803 5804 5804 5804 5804 5805 5805 5805 5806 5806 5807 5807 5807 5808 5808 5809 5809 5810 5810 5811 5811 5812 5812 5812 5813 5813 5814 5814 5814 5815 5815 5815 5815 5816 5816 5816 5816 5816 5815 5815 5815
5781 5782 5782 5782 5783 5785 5784 5784 5784 5785 5785 5785 5786 5787 5788 5788 5787 5787 5787 5788 5788 5788 5788 5789 5789 5790 5791 5793 5793 5794 5795 5795 5795 5797 5798 5799 5799 5799 5799 5800 5800 5800 5800 5800 5801 5802 5802 5802 5803 5803 5803 5803 5804 5804 5805 5805 5805 5806 5806 5807 5807 5808 5808 5809 5809 5810 5810 5811 5811 5812 5812 5812 5813 5813 5813 5814 5814 5814 5814 5814 5814 5814 5814 5814 5814
5778 5778 5778 5779 5780 5780 5780 5781 5781 5782 5782 5782 5783 5784 5785 5785 5785 5786 5786 5786 5786 5786 5787 5787 5788 5789 5790 5790 5791 5791 5791 5792 5792 5794 5796 5796 5796 5797 5798 5798 5798 5798 5798 5799 5799 5800 5800 5800 5801 5801 5801 5801 5802 5802 5802 5803 5803 5804 5804 5805 5805 5806 5806 5807 5807 5808 5808 5809 5810 5810 5810 5811 5811 5811 5811 5812 5812 5812 5812 5813 5813 5813 5812 5812 5812
5775 5774 5774 5775 5775 5776 5776 5777 5778 5778 5779 5779 5779 5780 5782 5783 5783 5784 5784 5784 5784 5784 5785 5786 5787 5788 5788 5787 5787 5788 5789 5789 5790 5791 5793 5794 5794 5795 5796 5796 5796 5796 5795 5796 5797 5798 5798 5798 5798 5798 5799 5799 5800 5800 5800 5801 5801 5801 5802 5802 5803 5803 5804 5805 5805 5806 5806 5807 5808 5808 5809 5809 5809 5809 5810 5810 5810 5811 5811 5811 5811 5811 5811 5810 5810
5772 5771 5771 5771 5771 5772 5773 5773 5774 5775 5775 5776 5776 5777 5778 5779 5780 5781 5781 5781 5782 5782 5783 5784 5785 5786 5785 5785 5785 5787 5787 5786 5787 5789 5790 5791 5792 5793 5793 5794 5795 5795 5794 5794 5795 5795 5795 5796 5796 5796 5797 5797 5797 5798 5798 5798 5799 5799 5800 5800 5801 5801 5802 5803 5803 5804 5805 5805 5806 5807 5807 5807 5807 5807 5808 5808 5809 5809 5809 5809 5809 5809 5809 5809 5808
5768 5768 5767 5766 5767 5768 5769 5769 5770 5771 5772 5773 5773 5773 5774 5776 5776 5777 5778 5778 5779 5780 5780 5781 5783 5783 5783 5783 5784 5785 5785 5785 5786 5787 5787 5788 5789 5791 5791 5792 5793 5794 5793 5792 5793 5793 5793 5793 5794 5794 5794 5795 5795 5795 5795 5796 5796 5797 5797 5798 5798 5799 5800 5800 5801 5802 5803 5803 5804 5805 5805 5805 5805 5805 5806 5806 5806 5807 5807 5807 5807 5807 5807 5807 5807
5763 5764 5763 5763 5763 5764 5765 5765 5766 5767 5768 5769 5770 5770 5771 5772 5773 5773 5774 5775 5776 5777 5778 5778 5780 5780 5781 5781 5782 5783 5783 5783 5784 5784 5785 5785 5786 5788 5789 5790 5791 5792 5791 5791 5791 5791 5791 5791 5791 5791 5792 5792 5792 5793 5793 5793 5794 5794 5795 5796 5796 5797 5797 5798 5799 5800 5800 5801 5802 5802 5803 5803 5803 5803 5803 5804 5804 5805 5805 5805 5805 5805 5805 5805 5805
5759 5760 5759 5759 5759 5759 5760 5760 5761 5762 5764 5765 5766 5767 5767 5768 5769 5770 5771 5773 5774 5775 5775 5776 5777 5778 5778 5779 5780 5780 5781 5781 5781 5781 5782 5783 5784 5785 5786 5787 5789 5789 5789 5789 5788 5788 5788 5788 5788 5789 5789 5790 5790 5790 5791 5791 5791 5792 5793 5793 5794 5794 5795 5796 5796 5797 5798 5799 5800 5800 5800 5800 5800 5801 5801 5801 5802 5802 5802 5802 5802 5802 5802 5802 5802
5754 5755 5755 5755 5755 5755 5755 5755 5757 5759 5760 5761 5762 5763 5764 5765 5766 5767 5769 5770 5771 5772 5773 5774 5774 5775 5776 5777 5777 5778 5778 5778 5779 5779 5780 5781 5781 5782 5783 5784 5785 5786 5787 5787 5785 5785 5785 5785 5786 5786 5786 5787 5788 5788 5788 5789 5789 5790 5790 5791 5792 5792 5793 5793 5794 5795 5796 5796 5797 5798 5798 5798 5798 5798 5799 5799 5799 5799 5799 5800 5800 5800 5799 5799 5799
5749 5750 5750 5751 5751 5751 5750 5751 5753 5755 5756 5757 5758 5759 5760 5761 5762 5764 5765 5766 5767 5768 5769 5770 5771 5772 5773 5774 5775 5775 5775 5776 5777 5777 5778 5778 5779 5780 5780 5781 5782 5783 5784 5784 5783 5783 5782 5783 5783 5784 5784 5785 5785 5786 5786 5786 5787 5787 5788 5788 5789 5790 5790 5791 5792 5792 5793 5794 5794 5795 5795 5795 5795 5796 5796 5796 5796 5796 5797 5797 5797 5797 5796 5796 5796
5745 5745 5746 5746 5747 5747 5747 5748 5749 5751 5752 5753 5754 5755 5756 5757 5759 5760 5762 5763 5764 5765 5766 5767 5768 5769 5771 5772 5772 5772 5773 5773 5774 5775 5775 5775 5776 5776 5777 5778 5779 5781 5782 5781 5781 5781 5780 5780 5781 5781 5782 5782 5783 5783 5784 5784 5784 5785 5785 5786 5787 5787 5788 5788 5789 5790 5790 5791 5792 5792 5792 5793 5793 5793 5793 5793 5793 5793 5794 5794 5794 5793 5793 5793 5793
5740 5741 5741 5742 5743 5744 5744 5745 5746 5748 5748 5749 5751 5752 5753 5754 5755 5757 5758 5759 5760 5762 5763 5764 5766 5767 5768 5769 5770 5769 5770 5770 5771 5772 5772 5772 5773 5773 5774 5775 5777 5778 5778 5779 5779 5778 5778 5778 5779 5779 5779 5780 5780 5781 5781 5781 5782 5782 5783 5783 5784 5785 5785 5786 5786 5787 5788 5788 5789 5789 5790 5790 5790 5790 5790 5790 5790 5790 5790 5790 5790 5790 5790 5790 5789
5736 5736 5737 5738 5739 5740 5741 5743 5744 5744 5744 5746 5747 5748 5750 5751 5753 5754 5755 5756 5757 5758 5760 5762 5763 5765 5766 5767 5767 5767 5767 5768 5769 5770 5770 5770 5770 5771 5771 5772 5773 5774 5775 5776 5776 5776 5775 5776 5776 5776 5777 5777 5777 5777 5778 5778 5779 5780 5780 5781 5782 5782 5782 5783 5784 5784 5785 5786 5786 5787 5787 5787 5787 5787 5787 5787 5787 5787 5787 5787 5787 5786 5786 5786 5786
5732 5732 5732 5733 5735 5737 5738 5740 5741 5741 5741 5742 5744 5745 5747 5748 5750 5751 5752 5753 5755 5756 5757 5759 5760 5762 5763 5763 5764 5764 5765 5765 5766 5767 5767 5768 5768 5769 5769 5770 5770 5771 5772 5772 5773 5773 5773 5773 5773 5774 5774 5774 5774 5774 5775 5775 5776 5777 5778 5778 5779 5779 5780 5780 5781 5782 5782 5783 5783 5784 5784 5784 5784 5784 5784 5784 5784 5783 5783 5783 5783 5783 5782 5782 5782
5727 5728 5728 5729 5731 5732 5734 5736 5737 5737 5738 5739 5741 5742 5743 5745 5747 5749 5750 5751 5752 5753 5754 5755 5757 5758 5759 5760 5761 5761 5762 5762 5762 5763 5764 5765 5766 5767 5767 5768 5768 5768 5769 5769 5769 5769 5770 5770 5770 5771 5771 5771 5771 5772 5772 5773 5773 5774 5775 5776 5776 5776 5777 5778 5778 5779 5779 5780 5781 5781 5781 5781 5781 5781 5781 5780 5780 5780 5779 5779 5779 5779 5779 5779 5779
5723 5724 5725 5726 5728 5728 5730 5732 5733 5734 5735 5736 5738 5738 5740 5742 5744 5745 5747 5748 5749 5750 5751 5752 5753 5755 5756 5757 5757 5758 5759 5759 5759 5760 5761 5762 5763 5764 5765 5766 5766 5766 5766 5766 5766 5766 5767 5767 5767 5768 5768 5768 5769 5769 5770 5770 5771 5772 5772 5773 5773 5774 5774 5775 5775 5776 5776 5777 5777 5777 5778 5777 5777 5777 5777 5777 5776 5776 5776 5776 5776 5776 5775 5775 5774
5719 5720 5721 5723 5724 5726 5729 5730 5731 5732 5732 5733 5734 5735 5737 5739 5741 5742 5744 5745 5746 5747 5748 5749 5750 5751 5752 5753 5754 5755 5756 5756 5756 5757 5757 5759 5760 5760 5762 5763 5763 5763 5763 5762 5763 5763 5763 5764 5764 5765 5765 5766 5766 5767 5767 5768 5768 5769 5769 5770 5770 5771 5771 5772 5772 5773 5773 5774 5774 5774 5774 5774 5774 5773 5773 5773 5773 5772 5772 5773 5772 5772 5771 5770 5770
5716 5716 5718 5719 5721 5723 5727 5728 5729 5730 5730 5730 5731 5732 5734 5736 5737 5739 5740 5742 5743 5744 5745 5746 5747 5748 5749 5750 5751 5752 5752 5753 5753 5754 5755 5756 5756 5757 5758 5759 5760 5760 5759 5759 5760 5760 5760 5761 5761 5762 5763 5763 5764 5764 5764 5765 5765 5766 5766 5767 5767 5768 5768 5768 5769 5770 5770 5770 5770 5770 5770 5770 5770 5770 5770 5769 5769 5769 5769 5769 5768 5767 5767 5766 5766
5712 5712 5714 5716 5718 5721 5723 5725 5726 5728 5728 5727 5728 5729 5731 5733 5734 5735 5736 5738 5739 5740 5741 5742 5743 5744 5745 5746 5747 5748 5749 5750 5750 5751 5752 5752 5753 5754 5755 5756 5756 5756 5756 5756 5756 5756 5757 5759 5759 5759 5759 5760 5761 5761 5761 5761 5762 5763 5763 5763 5763 5764 5764 5765 5765 5766 5766 5766 5766 5766 5766 5766 5766 5766 5765 5765 5765 5765 5764 5764 5763 5763 5762 5761 5761
5708 5709 5710 5713 5716 5719 5720 5722 5724 5725 5725 5725 5725 5725 5727 5729 5730 5731 5732 5733 5735 5736 5737 5738 5739 5740 5741 5742 5744 5745 5746 5746 5747 5748 5749 5749 5749 5750 5752 5753 5752 5752 5753 5753 5753 5753 5754 5755 5755 5756 5757 5757 5757 5758 5758 5758 5759 5759 5759 5759 5760 5760 5760 5761 5761 5762 5763 5763 5762 5762 5762 5762 5762 5761 5761 5761 5761 5760 5759 5759 5759 5758 5757 5757 5756
5707 5707 5709 5711 5714 5716 5717 5720 5721 5722 5723 5723 5722 5722 5724 5726 5727 5727 5728 5730 5731 5732 5733 5734 5735 5737 5738 5739 5740 5741 5742 5743 5744 5745 5745 5745 5746 5747 5748 5749 5749 5749 5750 5750 5750 5750 5750 5750 5752 5753 5754 5754 5755 5755 5755 5755 5755 5756 5756 5756 5756 5756 5757 5757 5758 5759 5759 5759 5758 5758 5758 5758 5757 5757 5756 5756 5756 5756 5754 5754 5754 5753 5752 5751 5750
5706 5707 5708 5709 5711 5712 5714 5715 5717 5718 5719 5718 5718 5719 5720 5722 5723 5724 5725 5726 5727 5728 5729 5730 5731 5733 5735 5736 5737 5738 5739 5740 5741 5741 5742 5742 5742 5743 5744 5745 5746 5747 5748 5748 5747 5747 5747 5747 5750 5751 5751 5751 5751 5751 5751 5751 5752 5752 5752 5752 5752 5753 5753 5753 5754 5755 5756 5755 5754 5754 5753 5753 5753 5752 5752 5752 5752 5751 5750 5749 5748 5747 5746 5746 5745
5705 5705 5706 5706 5707 5708 5710 5711 5711 5712 5712 5712 5713 5715 5717 5718 5719 5720 5721 5722 5723 5724 5725 5726 5728 5729 5731 5732 5734 5734 5735 5736 5737 5738 5738 5738 5739 5739 5740 5742 5743 5744 5745 5745 5744 5744 5745 5745 5747 5748 5748 5748 5748 5748 5748 5747 5747 5748 5749 5749 5749 5749 5749 5750 5751 5751 5751 5750 5750 5750 5749 5749 5749 5748 5747 5748 5748 5746 5745 5744 5743 5742 5741 5740 5740
5703 5703 5703 5704 5704 5705 5706 5706 5707 5708 5707 5707 5709 5711 5713 5715 5716 5717 5718 5719 5720 5720 5721 5722 5724 5726 5727 5728 5730 5731 5731 5732 5733 5734 5735 5735 5735 5736 5737 5738 5739 5739 5741 5741 5741 5742 5743 5743 5744 5744 5744 5744 5744 5744 5744 5743 5743 5745 5745 5745 5745 5745 5746 5746 5746 5746 5745 5745 5745 5745 5744 5745 5745 5743 5741 5742 5743 5741 5739 5738 5737 5736 5736 5735 5734
5700 5700 5700 5700 5701 5701 5702 5703 5703 5703 5704 5705 5706 5708 5710 5711 5712 5713 5714 5715 5715 5716 5717 5718 5720 5721 5723 5725 5726 5727 5728 5728 5729 5730 5730 5731 5731 5732 5732 5733 5734 5735 5736 5737 5738 5739 5740 5741 5740 5739 5738 5739 5740 5740 5739 5739 5740 5741 5741 5740 5741 5741 5741 5741 5741 5741 5741 5740 5740 5740 5738 5739 5741 5739 5737 5736 5737 5735 5733 5733 5732 5731 5730 5729 5728
5697 5697 5697 5697 5697 5698 5698 5699 5699 5700 5701 5701 5702 5704 5706 5707 5708 5709 5710 5711 5712 5712 5713 5715 5716 5717 5719 5721 5722 5723 5724 5725 5725 5726 5727 5727 5727 5728 5728 5729 5730 5731 5732 5733 5734 5735 5736 5737 5736 5734 5734 5735 5735 5735 5735 5736 5737 5737 5736 5736 5737 5737 5736 5736 5736 5737 5736 5735 5735 5735 5734 5733 5734 5735 5733 5731 5731 5730 5727 5726 5727 5727 5724 5722 5722
5694 5694 5694 5693 5694 5694 5695 5695 5695 5696 5696 5697 5698 5699 5701 5702 5704 5705 5706 5707 5708 5709 5710 5711 5712 5713 5715 5716 5717 5718 5719 5720 5721 5722 5722 5723 5723 5724 5724 5725 5726 5727 5728 5729 5730 5731 5732 5733 5732 5731 5731 5731 5731 5732 5732 5733 5733 5732 5731 5732 5733 5732 5732 5731 5732 5732 5731 5730 5731 5731 5729 5727 5727 5729 5729 5727 5726 5725 5722 5720 5720 5720 5718 5716 5715
5690 5690 5690 5690 5690 5691 5691 5691 5691 5692 5692 5692 5694 5695 5696 5698 5699 5701 5702 5703 5704 5705 5706 5707 5708 5709 5710 5711 5712 5714 5715 5715 5716 5717 5718 5718 5719 5719 5720 5721 5722 5723 5724 5725 5726 5727 5728 5728 5728 5728 5727 5727 5727 5728 5728 5728 5728 5727 5727 5728 5728 5727 5726 5726 5727 5727 5726 5726 5727 5726 5724 5723 5722 5723 5724 5723 5720 5719 5718 5716 5714 5713 5712 5710 5708
5686 5686 5686 5686 5686 5686 5687 5687 5687 5687 5687 5688 5689 5690 5691 5692 5694 5696 5697 5698 5699 5700 5701 5702 5703 5704 5705 5706 5708 5709 5710 5710 5711 5712 5713 5713 5714 5715 5715 5716 5717 5718 5719 5720 5721 5722 5722 5723 5723 5723 5723 5722 5723 5724 5724 5724 5724 5723 5723 5723 5724 5723 5721 5721 5722 5721 5721 5723 5722 5720 5719 5719 5718 5718 5718 5717 5714 5713 5713 5711 5709 5707 5706 5704 5702